Time,TemperatureF,DewpointF,PressureIn,WindDirection,WindDirectionDegrees,WindSpeedMPH,WindSpeedGustMPH,Humidity,HourlyPrecipIn,Conditions,Clouds,dailyrainin,SoftwareType,DateUTC
2015-01-31 00:01:00,51.2,31.7,30.26,ESE,109,1.9,7.2,47,0.00,,---,0.00,VWS V15.00,2015-01-31 06:01:00,
2015-01-31 00:06:00,51.0,32.0,30.26,ESE,117,5.7,7.2,48,0.00,,---,0.00,VWS V15.00,2015-01-31 06:06:00,
2015-01-31 00:11:00,50.9,31.9,30.26,ESE,115,3.8,7.2,48,0.00,,---,0.00,VWS V15.00,2015-01-31 06:11:00,
2015-01-31 00:16:00,50.7,32.2,30.25,SE,126,7.6,10.8,49,0.00,,---,0.00,VWS V15.00,2015-01-31 06:16:00,
2015-01-31 00:21:00,50.6,32.2,30.25,SE,126,9.5,14.4,49,0.00,,---,0.00,VWS V15.00,2015-01-31 06:21:00,
2015-01-31 00:26:00,50.5,32.0,30.25,ESE,122,3.0,7.0,49,0.00,,,0.00,weatherlink.com 1.10,2015-01-31 06:26:00,
2015-01-31 00:31:00,50.4,32.5,30.25,ESE,108,1.9,12.6,50,0.00,,---,0.00,VWS V15.00,2015-01-31 06:31:00,
2015-01-31 00:36:00,50.3,32.4,30.25,ESE,115,5.7,14.4,50,0.00,,---,0.00,VWS V15.00,2015-01-31 06:36:00,
2015-01-31 00:41:00,50.2,32.3,30.25,ESE,122,1.9,12.6,50,0.00,,---,0.00,VWS V15.00,2015-01-31 06:41:00,
2015-01-31 00:46:00,50.1,32.2,30.24,SE,146,7.6,12.6,50,0.00,,---,0.00,VWS V15.00,2015-01-31 06:46:00,
2015-01-31 00:51:00,50.1,32.7,30.24,ESE,118,3.8,10.8,51,0.00,,---,0.00,VWS V15.00,2015-01-31 06:51:00,
2015-01-31 00:56:00,50.0,32.6,30.24,SSE,165,1.9,10.8,51,0.00,,---,0.00,VWS V15.00,2015-01-31 06:56:00,
2015-01-31 01:01:00,49.9,32.5,30.24,SE,140,3.8,10.8,51,0.00,,---,0.00,VWS V15.00,2015-01-31 07:01:00,
2015-01-31 01:06:00,49.8,32.4,30.24,ESE,107,7.6,10.8,51,0.00,,---,0.00,VWS V15.00,2015-01-31 07:06:00,
2015-01-31 01:11:00,49.8,32.4,30.24,SE,134,5.7,9.0,51,0.00,,---,0.00,VWS V15.00,2015-01-31 07:11:00,
2015-01-31 01:16:00,49.8,32.4,30.24,SE,143,1.9,10.8,51,0.00,,---,0.00,VWS V15.00,2015-01-31 07:16:00,
2015-01-31 01:21:00,49.7,32.3,30.24,SE,130,1.9,9.0,51,0.00,,---,0.00,VWS V15.00,2015-01-31 07:21:00,
2015-01-31 01:26:00,49.7,32.3,30.24,SE,125,3.8,9.0,51,0.00,,---,0.00,VWS V15.00,2015-01-31 07:26:00,
2015-01-31 01:31:00,49.7,32.8,30.24,ESE,122,5.7,9.0,52,0.00,,---,0.00,VWS V15.00,2015-01-31 07:31:00,
2015-01-31 01:36:00,49.6,32.7,30.24,ESE,122,7.6,10.8,52,0.00,,---,0.00,VWS V15.00,2015-01-31 07:36:00,
2015-01-31 01:41:00,49.7,32.8,30.24,SE,129,5.7,12.6,52,0.00,,---,0.00,VWS V15.00,2015-01-31 07:41:00,
2015-01-31 01:46:00,49.6,32.7,30.24,ESE,115,5.7,12.6,52,0.00,,---,0.00,VWS V15.00,2015-01-31 07:46:00,
2015-01-31 01:51:00,49.6,32.7,30.24,ESE,121,5.7,7.2,52,0.00,,---,0.00,VWS V15.00,2015-01-31 07:51:00,
2015-01-31 01:56:00,49.5,32.6,30.23,SE,136,7.6,9.0,52,0.00,,---,0.00,VWS V15.00,2015-01-31 07:56:00,
2015-01-31 02:01:00,49.4,32.5,30.23,SE,126,1.9,12.6,52,0.00,,---,0.00,VWS V15.00,2015-01-31 08:01:00,
2015-01-31 02:06:00,49.4,33.0,30.23,ESE,115,3.8,12.6,53,0.00,,---,0.00,VWS V15.00,2015-01-31 08:06:00,
2015-01-31 02:11:00,49.3,32.9,30.23,SE,134,9.5,10.8,53,0.00,,---,0.00,VWS V15.00,2015-01-31 08:11:00,
2015-01-31 02:16:00,49.3,32.9,30.23,ESE,122,3.8,12.6,53,0.00,,---,0.00,VWS V15.00,2015-01-31 08:16:00,
2015-01-31 02:21:00,49.3,32.9,30.22,ESE,110,5.7,9.0,53,0.00,,---,0.00,VWS V15.00,2015-01-31 08:21:00,
2015-01-31 02:26:00,49.2,32.8,30.22,SE,134,1.9,10.8,53,0.00,,---,0.00,VWS V15.00,2015-01-31 08:26:00,
2015-01-31 02:31:00,49.2,33.3,30.22,ESE,104,11.4,11.4,54,0.00,,---,0.00,VWS V15.00,2015-01-31 08:31:00,
2015-01-31 02:36:00,49.1,33.2,30.22,ENE,75,5.7,12.6,54,0.00,,---,0.00,VWS V15.00,2015-01-31 08:36:00,
2015-01-31 02:41:00,49.1,33.2,30.21,SE,133,5.7,12.6,54,0.00,,---,0.00,VWS V15.00,2015-01-31 08:41:00,
2015-01-31 02:46:00,49.0,33.1,30.21,East,101,5.7,12.6,54,0.00,,---,0.00,VWS V15.00,2015-01-31 08:46:00,
2015-01-31 02:51:00,49.0,33.1,30.21,SSE,159,3.8,10.8,54,0.00,,---,0.00,VWS V15.00,2015-01-31 08:51:00,
2015-01-31 02:56:00,48.9,33.0,30.21,SSE,149,5.7,12.6,54,0.00,,---,0.00,VWS V15.00,2015-01-31 08:56:00,
2015-01-31 03:01:00,48.9,33.0,30.21,ESE,119,7.6,12.6,54,0.00,,---,0.00,VWS V15.00,2015-01-31 09:01:00,
2015-01-31 03:06:00,48.8,32.9,30.21,ESE,113,13.3,13.3,54,0.00,,---,0.00,VWS V15.00,2015-01-31 09:06:00,
2015-01-31 03:11:00,48.8,32.9,30.20,ENE,72,7.6,12.6,54,0.00,,---,0.00,VWS V15.00,2015-01-31 09:11:00,
2015-01-31 03:16:00,48.7,32.8,30.20,ESE,115,9.5,14.4,54,0.00,,---,0.00,VWS V15.00,2015-01-31 09:16:00,
2015-01-31 03:21:00,48.7,33.3,30.20,ESE,122,3.8,12.6,55,0.00,,---,0.00,VWS V15.00,2015-01-31 09:21:00,
2015-01-31 03:26:00,48.6,33.2,30.20,ENE,73,7.6,12.6,55,0.00,,---,0.00,VWS V15.00,2015-01-31 09:26:00,
2015-01-31 03:31:00,48.5,33.5,30.19,ESE,107,5.7,7.2,56,0.00,,---,0.00,VWS V15.00,2015-01-31 09:31:00,
2015-01-31 03:36:00,48.4,33.4,30.19,SE,134,5.7,10.8,56,0.00,,---,0.00,VWS V15.00,2015-01-31 09:36:00,
2015-01-31 03:41:00,48.3,33.3,30.19,ESE,109,7.6,9.0,56,0.00,,---,0.00,VWS V15.00,2015-01-31 09:41:00,
2015-01-31 03:46:00,48.2,33.7,30.19,SE,145,5.7,9.0,57,0.00,,---,0.00,VWS V15.00,2015-01-31 09:46:00,
2015-01-31 03:51:00,48.1,33.6,30.19,ESE,115,1.9,10.8,57,0.00,,---,0.00,VWS V15.00,2015-01-31 09:51:00,
2015-01-31 03:56:00,48.1,33.6,30.19,ESE,105,3.8,10.8,57,0.00,,---,0.00,VWS V15.00,2015-01-31 09:56:00,
2015-01-31 04:01:00,48.1,33.6,30.18,ESE,119,3.8,10.8,57,0.00,,---,0.00,VWS V15.00,2015-01-31 10:01:00,
2015-01-31 04:06:00,48.1,33.6,30.18,SE,138,5.7,14.4,57,0.00,,---,0.00,VWS V15.00,2015-01-31 10:06:00,
2015-01-31 04:11:00,48.1,33.6,30.18,ESE,105,7.6,10.8,57,0.00,,---,0.00,VWS V15.00,2015-01-31 10:11:00,
2015-01-31 04:16:00,48.1,33.6,30.19,SE,142,3.8,10.8,57,0.00,,---,0.00,VWS V15.00,2015-01-31 10:16:00,
2015-01-31 04:21:00,48.0,33.5,30.19,ESE,107,7.6,9.0,57,0.00,,---,0.00,VWS V15.00,2015-01-31 10:21:00,
2015-01-31 04:26:00,48.0,33.1,30.19,ESE,115,5.7,10.8,56,0.00,,---,0.00,VWS V15.00,2015-01-31 10:26:00,
2015-01-31 04:31:00,48.1,33.2,30.19,SE,129,9.5,14.4,56,0.00,,---,0.00,VWS V15.00,2015-01-31 10:31:00,
2015-01-31 04:36:00,48.0,33.1,30.19,SE,134,3.8,14.4,56,0.00,,---,0.00,VWS V15.00,2015-01-31 10:36:00,
2015-01-31 04:41:00,48.0,33.1,30.19,SE,143,3.8,7.2,56,0.00,,---,0.00,VWS V15.00,2015-01-31 10:41:00,
2015-01-31 04:46:00,47.9,33.4,30.19,ESE,106,5.7,9.0,57,0.00,,---,0.00,VWS V15.00,2015-01-31 10:46:00,
2015-01-31 04:51:00,47.8,33.3,30.19,ESE,122,5.7,9.0,57,0.00,,---,0.00,VWS V15.00,2015-01-31 10:51:00,
2015-01-31 04:56:00,47.7,33.2,30.19,ESE,113,5.7,9.0,57,0.00,,---,0.00,VWS V15.00,2015-01-31 10:56:00,
2015-01-31 05:01:00,47.7,33.2,30.19,SE,125,5.7,7.2,57,0.00,,---,0.00,VWS V15.00,2015-01-31 11:01:00,
2015-01-31 05:06:00,47.8,33.3,30.19,ESE,102,1.9,9.0,57,0.00,,---,0.00,VWS V15.00,2015-01-31 11:06:00,
2015-01-31 05:11:00,47.9,33.4,30.19,East,97,3.8,7.2,57,0.00,,---,0.00,VWS V15.00,2015-01-31 11:11:00,
2015-01-31 05:16:00,47.9,33.4,30.19,East,100,1.9,7.2,57,0.00,,---,0.00,VWS V15.00,2015-01-31 11:16:00,
2015-01-31 05:21:00,48.0,33.5,30.19,ESE,112,5.7,5.7,57,0.00,,---,0.00,VWS V15.00,2015-01-31 11:21:00,
2015-01-31 05:26:00,48.0,33.5,30.19,SSE,153,0.0,7.2,57,0.00,,---,0.00,VWS V15.00,2015-01-31 11:26:00,
2015-01-31 05:31:00,48.2,33.3,30.19,SE,137,9.5,18.0,56,0.00,,---,0.00,VWS V15.00,2015-01-31 11:31:00,
2015-01-31 05:36:00,48.5,33.1,30.19,SE,131,5.7,18.0,55,0.00,,---,0.00,VWS V15.00,2015-01-31 11:36:00,
2015-01-31 05:41:00,48.6,32.7,30.19,SE,135,7.6,16.2,54,0.00,,---,0.00,VWS V15.00,2015-01-31 11:41:00,
2015-01-31 05:46:00,48.7,32.8,30.18,ESE,111,7.6,21.6,54,0.00,,---,0.00,VWS V15.00,2015-01-31 11:46:00,
2015-01-31 05:51:00,48.7,32.8,30.18,ESE,122,7.6,18.0,54,0.00,,---,0.00,VWS V15.00,2015-01-31 11:51:00,
2015-01-31 05:56:00,48.6,32.7,30.18,SE,129,13.3,25.2,54,0.00,,---,0.00,VWS V15.00,2015-01-31 11:56:00,
2015-01-31 06:01:00,48.6,32.7,30.18,SW,221,9.5,10.8,54,0.00,,---,0.00,VWS V15.00,2015-01-31 12:01:00,
2015-01-31 06:06:00,48.5,32.6,30.18,ESE,109,11.4,19.8,54,0.00,,---,0.00,VWS V15.00,2015-01-31 12:06:00,
2015-01-31 06:11:00,48.5,32.6,30.18,SE,137,11.4,19.8,54,0.00,,---,0.00,VWS V15.00,2015-01-31 12:11:00,
2015-01-31 06:16:00,48.5,32.6,30.18,SE,131,13.3,19.8,54,0.00,,---,0.00,VWS V15.00,2015-01-31 12:16:00,
2015-01-31 06:21:00,48.5,32.6,30.18,SE,141,9.5,18.0,54,0.00,,---,0.00,VWS V15.00,2015-01-31 12:21:00,
2015-01-31 06:26:00,48.4,32.5,30.18,SE,138,15.2,27.0,54,0.00,,---,0.00,VWS V15.00,2015-01-31 12:26:00,
2015-01-31 06:31:00,48.4,33.0,30.18,East,89,17.1,17.1,55,0.00,,---,0.00,VWS V15.00,2015-01-31 12:31:00,
2015-01-31 06:36:00,48.3,32.9,30.18,East,82,7.6,16.2,55,0.00,,---,0.00,VWS V15.00,2015-01-31 12:36:00,
2015-01-31 06:41:00,48.3,33.3,30.18,ESE,107,7.6,7.6,56,0.00,,---,0.00,VWS V15.00,2015-01-31 12:41:00,
2015-01-31 06:46:00,48.2,33.3,30.18,ESE,113,11.4,16.2,56,0.00,,---,0.00,VWS V15.00,2015-01-31 12:46:00,
2015-01-31 06:51:00,48.2,33.3,30.18,SE,140,7.6,16.2,56,0.00,,---,0.00,VWS V15.00,2015-01-31 12:51:00,
2015-01-31 06:56:00,48.2,33.3,30.18,ESE,107,9.5,16.2,56,0.00,,---,0.00,VWS V15.00,2015-01-31 12:56:00,
2015-01-31 07:01:00,48.1,33.2,30.18,ESE,105,9.5,19.8,56,0.00,,---,0.00,VWS V15.00,2015-01-31 13:01:00,
2015-01-31 07:06:00,48.1,33.2,30.18,SE,145,9.5,21.6,56,0.00,,---,0.00,VWS V15.00,2015-01-31 13:06:00,
2015-01-31 07:11:00,48.1,33.2,30.18,ESE,120,15.2,18.0,56,0.00,,---,0.00,VWS V15.00,2015-01-31 13:11:00,
2015-01-31 07:16:00,48.1,33.2,30.18,SE,125,17.1,19.8,56,0.00,,---,0.00,VWS V15.00,2015-01-31 13:16:00,
2015-01-31 07:21:00,48.1,33.2,30.18,SE,132,7.6,12.6,56,0.00,,---,0.00,VWS V15.00,2015-01-31 13:21:00,
2015-01-31 07:26:00,48.1,33.6,30.18,SE,142,11.4,12.6,57,0.00,,---,0.00,VWS V15.00,2015-01-31 13:26:00,
2015-01-31 07:31:00,48.0,33.1,30.18,SSE,154,7.6,19.8,56,0.00,,---,0.00,VWS V15.00,2015-01-31 13:31:00,
2015-01-31 07:36:00,48.0,33.1,30.18,ESE,122,17.1,23.4,56,0.00,,---,0.00,VWS V15.00,2015-01-31 13:36:00,